This is the latest recevied weather packets stored in our database for station/object KD5BIG-13. If no packets are shown the sender has not sent any weather packets the latest 10 day(s).
| Time | Temp. | Humidity | Pressure | Rain* | Wind** | Luminosity | Snow |
|---|---|---|---|---|---|---|---|
| 1777992651 | 21.67° C | 80% | 1015.6 hPa | 0 mm | - | 317 W/m² | - |
| 1777992348 | 21.67° C | 79% | 1015.7 hPa | 0 mm | - | 235 W/m² | - |
| 1777992045 | 21.11° C | 81% | 1015.6 hPa | 0 mm | - | 248 W/m² | - |
| 1777991743 | 20.56° C | 80% | 1015.8 hPa | 0 mm | - | 200 W/m² | - |
| 1777991440 | 20.56° C | 82% | 1015.8 hPa | 0 mm | - | 208 W/m² | - |
| 1777991137 | 20.56° C | 81% | 1015.8 hPa | 0 mm | - | 155 W/m² | - |
| 1777990834 | 20.56° C | 80% | 1015.7 hPa | 0 mm | - | 157 W/m² | - |
| 1777990531 | 20° C | 82% | 1015.7 hPa | 0 mm | - | 158 W/m² | - |
| 1777989925 | 20° C | 81% | 1015.8 hPa | 0 mm | - | 109 W/m² | - |
| 1777989622 | 20° C | 82% | 1015.7 hPa | 0 mm | - | 105 W/m² | - |
| 1777989318 | 20° C | 82% | 1015.7 hPa | 0 mm | - | 104 W/m² | - |
| 1777989014 | 20° C | 82% | 1015.7 hPa | 0 mm | - | 120 W/m² | - |
| 1777988710 | 20° C | 84% | 1016 hPa | 0 mm | - | 116 W/m² | - |
| 1777988408 | 19.44° C | 82% | 1015.9 hPa | 0 mm | - | 174 W/m² | - |
| 1777988105 | 19.44° C | 84% | 1016.1 hPa | 0 mm | - | 168 W/m² | - |
| 1777987800 | 18.89° C | 84% | 1015.9 hPa | 0 mm | - | 169 W/m² | - |
| 1777987497 | 18.89° C | 83% | 1016 hPa | 0 mm | - | 154 W/m² | - |
| 1777987195 | 18.33° C | 84% | 1016.1 hPa | 0 mm | - | 145 W/m² | - |
| 1777986891 | 18.33° C | 85% | 1016.1 hPa | 0 mm | - | 161 W/m² | - |
| 1777986589 | 17.78° C | 86% | 1016.1 hPa | 0 mm | - | 138 W/m² | - |
| 1777986287 | 17.78° C | 88% | 1016.2 hPa | 0 mm | - | 121 W/m² | - |
| 1777985984 | 17.78° C | 88% | 1016.1 hPa | 0 mm | - | 132 W/m² | - |
| 1777985682 | 17.22° C | 87% | 1016.1 hPa | 0 mm | - | 115 W/m² | - |
| 1777985378 | 16.67° C | 89% | 1016 hPa | 0 mm | - | 90 W/m² | - |
| 1777985075 | 16.67° C | 90% | 1015.9 hPa | 0 mm | - | 90 W/m² | - |
* Rain latest hour (hover to see other rain measurements)
** Current wind speed in m/s (hover to see current wind gust speed)